www.pogodaiklimat.ru

Погода и климат >> Архив погоды >> Южная Африка >> Парк Addo Elephant


ПОГОДА в Парке Addo Elephant

  • Прогноз погоды в Парке Addo Elephant
  • Монитор погоды в Парке Addo Elephant

АРХИВ ПОГОДЫ в Парке Addo Elephant

Время (UTC), дата Ветер
(напр.,м/с)
 
Видим.   Явления Облачность Т
(С)
Тd
(С)
f
(%)
Тe
(С)
Тes
(С)
Комфортность P
(гПа)
Po
(гПа)
Тmin
(С)
Tmax
(С)
R
(мм)
R24
(мм)
S
(см)
03 12.08 Ю 2 н/о н/о +7.5 +6.6 94 +6 +6 1001.8 +7.3 +24.6
06 12.08 ЮВ 2 н/о н/о +6.8 +6.2 96 +4 +4 1004.4 +5.8
09 12.08 З 4 н/о н/о +18.6 +3.7 37 +19 +19 1004.5 +5.8 +18.6
12 12.08 З 5 н/о н/о +20.9 +1.8 28 +21 +21 комфорт 1003.0 +5.8 +21.4
15 12.08 Ю 6 н/о н/о +17.4 +5.7 46 +17 +17 1004.5 +17.4 +22.0
18 12.08 штиль 0 н/о н/о +10.1 +4.7 69 +10 +10 1007.9 +10.1 +22.0
21 12.08 В 3 н/о н/о +9.7 +5.1 73 +8 +8 1008.2 +8.8 +22.0
00 13.08 В 3 н/о н/о +8.2 +4.7 79 +6 +6 1008.1 +7.7 +22.0
03 13.08 В 3 н/о н/о +6.2 +3.8 85 +3 +3 1007.5 +6.2 +22.0
06 13.08 Ю 1 н/о н/о +5.9 +4.0 88 +5 +5 1007.8 +3.7
09 13.08 З 2 н/о н/о +17.7 +7.2 50 +18 +18 1006.8 +3.7 +17.7
15 13.08 Ю 4 н/о н/о +19.6 +7.8 46 +20 +20 1004.8 +19.6 +23.6
18 13.08 В 1 н/о н/о +11.8 +6.9 72 +12 +12 1007.5 +11.7 +23.6
21 13.08 В 3 н/о н/о +10.1 +6.6 79 +8 +8 1008.2 +9.0 +23.6
00 14.08 СЗ 1 н/о н/о +6.5 +4.1 85 +5 +5 1008.1 +6.5 +23.6
03 14.08 В 2 н/о н/о +4.6 +3.4 92 +2 +2 1008.1 +3.7 +23.6
06 14.08 Ю 1 н/о н/о +5.9 +4.3 89 +5 +5 1010.6 +3.6
09 14.08 З 3 н/о н/о +21.3 +8.0 42 +22 +22 комфорт 1012.9 +3.6 +21.3
12 14.08 ЮЗ 4 н/о н/о +23.7 +7.5 35 +24 +24 комфорт 1011.8 +3.6 +23.9
15 14.08 Ю 6 н/о н/о +20.3 +10.5 53 +22 +22 комфорт 1012.8 +20.3 +24.5
18 14.08 ЮВ 1 н/о н/о +14.7 +10.5 76 +15 +15 1015.7 +14.7 +24.5
21 14.08 В 3 н/о н/о +11.6 +9.5 87 +10 +10 1015.4 +11.6 +24.5
00 15.08 В 3 н/о н/о +8.9 +7.9 93 +6 +6 1014.4 +7.8 +24.5
03 15.08 В 1 н/о н/о +6.1 +5.2 94 +5 +5 1012.5 +6.1 +24.5
06 15.08 ЮВ 1 н/о н/о +7.1 +6.3 95 +6 +6 1012.1 +4.1
09 15.08 З 3 н/о н/о +20.3 +9.6 50 +22 +22 комфорт 1011.0 +4.1 +20.3
12 15.08 З 3 н/о н/о +27.8 +2.3 19 +26 +26 жарко 1007.7 +4.1 +28.2
15 15.08 ЮЗ 3 н/о н/о +27.0 +6.1 26 +26 +26 жарко 1006.3 +27.0 +29.5
18 15.08 В 3 н/о н/о +15.6 +4.1 46 +15 +15 1008.1 +15.6 +29.5
21 15.08 ЮВ 2 н/о н/о +9.4 +2.9 64 +8 +8 1007.6 +9.3 +29.5
00 16.08 штиль 0 н/о н/о +6.4 +1.7 72 +6 +6 1006.5 +6.4 +29.5
03 16.08 В 1 н/о н/о +5.0 +1.4 78 +4 +4 1005.0 +4.6 +29.5
06 16.08 В 2 н/о н/о +7.5 +2.4 70 +6 +6 1005.0 +3.8
09 16.08 Ю 2 н/о н/о +20.8 +12.6 59 +24 +24 комфорт 1006.6 +3.8 +20.9
12 16.08 Ю 5 н/о н/о +23.1 +11.9 49 +26 +26 жарко 1005.1 +3.8 +24.1
15 16.08 Ю 5 н/о н/о +18.7 +10.6 59 +19 +19 1006.4 +18.7 +24.1
18 16.08 СВ 1 н/о н/о +12.4 +8.5 77 +12 +12 1009.6 +12.4 +24.1
21 16.08 ЮВ 2 н/о н/о +8.5 +6.6 88 +7 +7 1010.3 +8.5 +24.1
00 17.08 ЮВ 1 н/о н/о +11.7 +8.7 82 +12 +12 1011.1 +8.4 +24.1
03 17.08 С 1 н/о н/о +11.7 +10.4 92 +11 +11 1011.6 +8.4 +24.1
06 17.08 штиль 0 н/о н/о +12.6 +11.9 95 +12 +12 1013.1 +8.4 0.8
09 17.08 В 2 н/о н/о +14.2 +13.2 94 +14 +14 1013.1 +8.4 +14.3
12 17.08 В 4 н/о н/о +17.7 +12.8 73 +18 +18 1009.9 +8.4 +17.7 0.8
15 17.08 В 5 н/о н/о +14.7 +11.3 80 +13 +13 1009.2 +14.7 +18.2
18 17.08 В 4 н/о н/о +13.7 +11.2 85 +12 +12 1009.3 +13.7 +18.2 0.8
21 17.08 В 3 н/о н/о +14.1 +11.1 82 +13 +13 1007.7 +13.7 +18.2
00 18.08 В 2 н/о н/о +14.1 +10.7 80 +14 +14 1005.6 +13.7 +18.2 0.8
03 18.08 СЗ 1 н/о н/о +12.1 +10.5 90 +12 +12 1003.3 +12.1 +18.2
06 18.08 штиль 0 н/о н/о +11.6 +10.3 92 +11 +11 1002.0 +11.2 0.8
09 18.08 З 3 н/о н/о +18.5 +12.5 68 +19 +19 1000.1 +11.2 +18.5
12 18.08 З 3 н/о н/о +24.9 +12.0 45 +27 +27 жарко 996.6 +11.2 +25.0
15 18.08 СЗ 2 н/о н/о +27.1 +11.4 38 +28 +28 жарко 995.4 +24.9 +27.8
18 18.08 В 3 н/о н/о +19.0 +8.7 51 +20 +20 998.1 +18.7 +27.8
21 18.08 В 3 н/о н/о +15.4 +12.5 83 +15 +15 1000.6 +15.4 +27.8
00 19.08 ЮВ 1 н/о н/о +13.2 +10.5 84 +13 +13 1002.4 +12.8 +27.8

 

Местоположение метеостанции Парк Addo Elephant (Южная Африка): широта -33.44 долгота 25.75 высота над уровнем моря 143 м.

В архиве по умолчанию представлена погода в Парке Addo Elephant за последнюю неделю. Архивные данные за месяц целиком и за предыдущие месяцы, начиная с января 2011 года, Вы можете получить, выбрав интересующий диапазон дат из раскрывающегося списка и нажав кнопку "Ввод!".


*Определитесь, кто Вы:
робот инопланетянин человек

Внимание! Время в таблицах - всемирное. Для получения местного времени необходимо прибавить поправку, которая равна 2 ч.

Смотрите также архив погоды в соседних городах и на ближайших метеорологических станциях:

Погода в Эйтенхахе (Южная Африка) (42 км)
Погода в Нгкура (Южная Африка) (42 км)
Погода в Сомерсет-Ист (Южная Африка) (53 км)
Погода в Порт-Элизабет (Южная Африка) (61 км)
Погода на Острове Бёрд (Южная Африка) (67 км)
Погода в Грейамстауне (Южная Африка) (72 км)
Погода в Патенсие (Южная Африка) (93 км)
Погода в Порт-Альфред (Южная Африка) (106 км)
Погода в Форт-Бофорте (Южная Африка) (110 км)
Погода на Мысе St. Francis (Южная Африка) (119 км)

Пояснения к столбцам:

Ветер - указаны скорость ветра в м/с - средняя за 10 мин, порывы в срок и между сроками (в фигурных скобках) и направление, откуда дует ветер: С - северный, СВ - северо-восточный, В - восточный, ЮВ - юго-восточный, Ю - южный, ЮЗ - юго-западный, З - западный, СЗ - северо-западный.
Видимость - горизонтальная дальность видимости в метрах или километрах. При видимости от 1 до 10 км при отсутствии осадков обычно наблюдается дымка, при ухудшении видимости до 1 км и менее - туман. В сухую погоду видимость может ухудшаться дымом, пылью или мглою.
Явления - указаны атмосферные явления, наблюдавшиеся в срок или в последний час перед сроком; фигурными скобками обозначены явления, наблюдавшиеся между сроками (за 1-3 часа до срока); квадратными скобками обозначены град или гололедные отложения с указанием их диаметра в мм.
Облачность - указаны через наклонную черту общая и нижняя облачность в баллах и высота нижней границы облаков в метрах; квадратными скобками обозначены формы облаков: Ci - перистые, Cs - перисто-слоистые, Cc - перисто-кучевые, Ac - высококучевые, As - высокослоистые, Sc - слоисто-кучевые, Ns - слоисто-дождевые, Cu - кучевые, Cb - кучево-дождевые. Подробнее классификацию облаков см. в Атласе облаков (PDF).
T - Температура воздуха - температура, измеренная на высоте 2 м над землей.
Td - Температура точки росы - температура, при понижении до которой содержащийся в воздухе водяной пар достигнет насыщения.
f - Относительная влажность воздуха - влажноcть воздуха, измеренная на высоте 2 м над землей.
Te - Эффективная температура - температура, которую ощущает одетый по сезону человек в тени. Характеристика душности погоды. При расчете учитывается влияние влажности воздуха и скорости ветра на теплоощущения человека.
Tes - Эффективная температура на солнце - температура, которую ощущает человек, с поправкой на солнечный нагрев. Характеристика знойности погоды. Зависит от высоты солнца над горизонтом, облачности и скорости ветра. Ночью, в пасмурную погоду, а также при ветре 12 м/с и более поправка равна нулю.
P - Атмосферное давление - приведенное к уровню моря атмосферное давление.
Po - Атмосферное давление - измеренное на уровне метеостанции атмосферное давление.
Tmin - Минимальная температура - минимум температуры воздуха на высоте 2 м над землей.
Tmax - Максимальная температура - максимум температуры воздуха на высоте 2 м над землей.
R - Количество осадков - Количество выпавших осадков за период времени, мм. При наведении курсора мыши на число - период времени, за который выпало указанное количество осадков.
R24 - Количество осадков - Количество выпавших осадков за 24 часа, мм.
S - Снежный покров - Высота снежного покрова, см. При наведении курсора мыши на число - состояние снежного покрова и степень покрытия местности в баллах.